| time (UTC) | temp F | wind direction | speed knots | gust knots | rain 1hr in | rain 24hr in | rain mn in | humidity % | barometer mb |
| 20260507073838 | 59 | 80 | 0.0 | 0.0 | 0.00 | 0.00 | 0.00 | 84 | 1017.0 |
| 20260507073336 | 59 | 84 | 0.0 | 0.0 | 0.00 | 0.00 | 0.00 | 84 | 1017.0 |
| 20260507072837 | 59 | 58 | 0.0 | 0.0 | 0.00 | 0.00 | 0.00 | 84 | 1016.9 |
| 20260507072334 | 59 | 25 | 0.0 | 0.0 | 0.00 | 0.00 | 0.00 | 83 | 1016.9 |
| 20260507071830 | 59 | 25 | 0.0 | 0.0 | 0.00 | 0.00 | 0.00 | 83 | 1017.0 |
| 20260507071327 | 59 | 26 | 0.0 | 0.0 | 0.00 | 0.00 | 0.00 | 83 | 1017.1 |
| 20260507070844 | 60 | 354 | 0.0 | 0.0 | 0.00 | 0.00 | 0.00 | 83 | 1017.1 |
| 20260507070320 | 60 | 353 | 0.0 | 0.0 | 0.00 | 0.00 | 0.00 | 83 | 1017.1 |
| 20260507065833 | 60 | 324 | 0.0 | 0.0 | 0.00 | 0.00 | 0.00 | 83 | 1017.1 |
| 20260507065330 | 60 | 262 | 0.0 | 0.0 | 0.00 | 0.00 | 0.00 | 83 | 1017.0 |
| 20260507064829 | 60 | 262 | 0.0 | 0.0 | 0.00 | 0.00 | 0.00 | 82 | 1017.0 |
| 20260507064343 | 60 | 262 | 0.0 | 0.0 | 0.00 | 0.00 | 0.00 | 82 | 1017.1 |
| 20260507063821 | 60 | 262 | 0.0 | 0.0 | 0.00 | 0.00 | 0.00 | 82 | 1017.0 |
| 20260507063318 | 60 | 262 | 0.0 | 0.0 | 0.00 | 0.00 | 0.00 | 82 | 1017.0 |
| 20260507062829 | 60 | 262 | 0.0 | 0.0 | 0.00 | 0.00 | 0.00 | 82 | 1017.1 |
| 20260507062327 | 60 | 262 | 0.0 | 0.0 | 0.00 | 0.00 | 0.00 | 82 | 1017.1 |
| 20260507061825 | 60 | 262 | 0.0 | 0.0 | 0.00 | 0.00 | 0.00 | 82 | 1017.0 |
| 20260507061323 | 60 | 262 | 0.0 | 0.0 | 0.00 | 0.00 | 0.00 | 82 | 1017.1 |
| 20260507060841 | 60 | 262 | 0.0 | 0.0 | 0.00 | 0.00 | 0.00 | 82 | 1017.2 |
| 20260507060314 | 61 | 262 | 0.0 | 0.0 | 0.00 | 0.00 | 0.00 | 82 | 1017.1 |
| 20260507055836 | 61 | 264 | 0.0 | 0.0 | 0.00 | 0.00 | 0.00 | 82 | 1017.2 |
| 20260507055354 | 61 | 264 | 0.0 | 0.0 | 0.00 | 0.00 | 0.00 | 81 | 1017.2 |
| 20260507054832 | 61 | 264 | 0.0 | 0.9 | 0.00 | 0.00 | 0.00 | 82 | 1017.2 |
| 20260507054328 | 61 | 279 | 0.0 | 1.7 | 0.00 | 0.00 | 0.00 | 81 | 1017.2 |
| 20260507053822 | 61 | 279 | 0.0 | 1.7 | 0.00 | 0.00 | 0.00 | 81 | 1017.2 |
| 20260507053339 | 61 | 268 | 0.0 | 0.9 | 0.00 | 0.00 | 0.00 | 81 | 1017.3 |
| 20260507052849 | 61 | 279 | 0.0 | 2.6 | 0.00 | 0.00 | 0.00 | 81 | 1017.3 |
| 20260507052323 | 61 | 279 | 0.0 | 2.6 | 0.00 | 0.00 | 0.00 | 81 | 1017.3 |
| 20260507051840 | 61 | 278 | 0.9 | 1.7 | 0.00 | 0.00 | 0.00 | 81 | 1017.2 |
| 20260507051336 | 61 | 287 | 0.0 | 2.6 | 0.00 | 0.00 | 0.00 | 81 | 1017.2 |
| 20260507050827 | 61 | 291 | 0.0 | 2.6 | 0.00 | 0.00 | 0.00 | 81 | 1017.2 |
| 20260507050320 | 61 | 318 | 0.0 | 2.6 | 0.00 | 0.00 | 0.00 | 81 | 1017.1 |
| 20260507045830 | 61 | 310 | 0.9 | 2.6 | 0.00 | 0.00 | 0.00 | 81 | 1017.1 |
| 20260507045327 | 61 | 288 | 0.0 | 0.0 | 0.00 | 0.00 | 0.00 | 82 | 1017.1 |
| 20260507044824 | 61 | 269 | 0.0 | 0.0 | 0.00 | 0.00 | 0.00 | 81 | 1017.2 |
| 20260507044321 | 61 | 269 | 0.0 | 0.0 | 0.00 | 0.00 | 0.00 | 81 | 1017.2 |
| 20260507043818 | 62 | 282 | 0.0 | 3.5 | 0.00 | 0.00 | 0.00 | 81 | 1017.1 |
| 20260507043316 | 62 | 310 | 1.7 | 3.5 | 0.00 | 0.00 | 0.00 | 81 | 1017.1 |
| 20260507042827 | 62 | 311 | 0.9 | 3.5 | 0.00 | 0.00 | 0.00 | 81 | 1017.2 |
| 20260507042329 | 62 | 301 | 1.7 | 3.5 | 0.00 | 0.00 | 0.00 | 81 | 1017.2 |
| 20260507041823 | 62 | 282 | 0.9 | 3.5 | 0.00 | 0.00 | 0.00 | 80 | 1017.1 |
| 20260507041319 | 62 | 290 | 0.9 | 5.2 | 0.00 | 0.00 | 0.00 | 80 | 1017.2 |
| 20260507040832 | 62 | 309 | 3.5 | 5.2 | 0.00 | 0.00 | 0.00 | 80 | 1017.0 |
| 20260507040347 | 62 | 285 | 0.9 | 3.5 | 0.00 | 0.00 | 0.00 | 79 | 1017.1 |
| 20260507035837 | 62 | 287 | 0.9 | 4.3 | 0.00 | 0.00 | 0.00 | 79 | 1017.1 |
| 20260507035346 | 62 | 295 | 0.9 | 4.3 | 0.00 | 0.00 | 0.00 | 79 | 1017.1 |
| 20260507034841 | 62 | 262 | 1.7 | 3.5 | 0.00 | 0.00 | 0.00 | 79 | 1017.0 |
| 20260507034336 | 62 | 314 | 1.7 | 3.5 | 0.00 | 0.00 | 0.00 | 79 | 1017.0 |
| 20260507033852 | 62 | 285 | 1.7 | 3.5 | 0.00 | 0.00 | 0.00 | 79 | 1016.9 |
| 20260507033343 | 62 | 332 | 0.0 | 2.6 | 0.00 | 0.00 | 0.00 | 79 | 1016.8 |
| 20260507032833 | 62 | 281 | 0.0 | 4.3 | 0.00 | 0.00 | 0.00 | 79 | 1016.7 |
| 20260507032330 | 62 | 311 | 1.7 | 6.1 | 0.00 | 0.00 | 0.00 | 79 | 1016.7 |
| 20260507031828 | 62 | 328 | 3.5 | 6.1 | 0.00 | 0.00 | 0.00 | 80 | 1016.7 |
| 20260507031325 | 62 | 344 | 2.6 | 4.3 | 0.00 | 0.00 | 0.00 | 80 | 1016.7 |
| 20260507030821 | 62 | 324 | 1.7 | 4.3 | 0.00 | 0.00 | 0.00 | 80 | 1016.6 |
| 20260507030315 | 62 | 292 | 1.7 | 4.3 | 0.00 | 0.00 | 0.00 | 81 | 1016.7 |
| 20260507025828 | 62 | 308 | 0.9 | 5.2 | 0.00 | 0.00 | 0.00 | 81 | 1016.6 |
| 20260507025325 | 63 | 287 | 2.6 | 5.2 | 0.00 | 0.00 | 0.00 | 80 | 1016.6 |
| 20260507024821 | 63 | 282 | 1.7 | 4.3 | 0.00 | 0.00 | 0.00 | 80 | 1016.4 |
| 20260507024338 | 63 | 308 | 0.9 | 5.2 | 0.00 | 0.00 | 0.00 | 80 | 1016.3 |
| 20260507023855 | 63 | 281 | 2.6 | 5.2 | 0.00 | 0.00 | 0.00 | 79 | 1016.3 |
| 20260507023350 | 63 | 316 | 0.9 | 5.2 | 0.00 | 0.00 | 0.00 | 80 | 1016.3 |
| 20260507022821 | 64 | 325 | 2.6 | 5.2 | 0.00 | 0.00 | 0.00 | 79 | 1016.3 |
| 20260507022317 | 64 | 287 | 0.9 | 4.3 | 0.00 | 0.00 | 0.00 | 78 | 1016.1 |
| 20260507021835 | 64 | 307 | 0.9 | 7.8 | 0.00 | 0.00 | 0.00 | 77 | 1016.1 |
| 20260507021331 | 64 | 276 | 3.5 | 7.8 | 0.00 | 0.00 | 0.00 | 77 | 1016.1 |
| 20260507020828 | 65 | 300 | 2.6 | 4.3 | 0.00 | 0.00 | 0.00 | 76 | 1016.1 |
| 20260507020324 | 65 | 266 | 0.9 | 5.2 | 0.00 | 0.00 | 0.00 | 77 | 1016.1 |
| 20260507015816 | 65 | 250 | 2.6 | 5.2 | 0.00 | 0.00 | 0.00 | 77 | 1016.0 |
| 20260507015332 | 65 | 300 | 1.7 | 8.7 | 0.00 | 0.00 | 0.00 | 77 | 1015.9 |
| 20260507014829 | 65 | 300 | 4.3 | 7.8 | 0.00 | 0.00 | 0.00 | 77 | 1016.0 |
| 20260507014326 | 65 | 275 | 1.7 | 7.0 | 0.00 | 0.00 | 0.00 | 76 | 1016.0 |
| 20260507013838 | 65 | 293 | 2.6 | 7.8 | 0.00 | 0.00 | 0.00 | 77 | 1016.0 |
| 20260507013355 | 66 | 297 | 3.5 | 7.8 | 0.00 | 0.00 | 0.00 | 75 | 1016.0 |
| 20260507012826 | 66 | 286 | 3.5 | 7.8 | 0.00 | 0.00 | 0.00 | 74 | 1016.0 |
| 20260507012315 | 66 | 316 | 3.5 | 7.8 | 0.00 | 0.00 | 0.00 | 74 | 1015.9 |
| 20260507011834 | 66 | 328 | 3.5 | 10.4 | 0.00 | 0.00 | 0.00 | 74 | 1016.0 |
| 20260507011331 | 66 | 300 | 3.5 | 10.4 | 0.00 | 0.00 | 0.00 | 74 | 1015.9 |
| 20260507010827 | 66 | 344 | 5.2 | 9.6 | 0.00 | 0.00 | 0.00 | 72 | 1015.8 |
| 20260507010321 | 67 | 278 | 4.3 | 10.4 | 0.00 | 0.00 | 0.00 | 70 | 1015.8 |
| 20260507005831 | 67 | 292 | 4.3 | 11.3 | 0.00 | 0.00 | 0.00 | 69 | 1015.8 |
| 20260507005330 | 67 | 308 | 6.1 | 11.3 | 0.00 | 0.00 | 0.00 | 69 | 1015.8 |
| 20260507004825 | 67 | 266 | 5.2 | 11.3 | 0.00 | 0.00 | 0.00 | 69 | 1015.8 |
| 20260507004341 | 67 | 289 | 5.2 | 10.4 | 0.00 | 0.00 | 0.00 | 69 | 1015.7 |
| 20260507003816 | 67 | 277 | 5.2 | 10.4 | 0.00 | 0.00 | 0.00 | 68 | 1015.7 |
| 20260507003330 | 67 | 291 | 5.2 | 10.4 | 0.00 | 0.00 | 0.00 | 69 | 1015.8 |
| 20260507002842 | 67 | 299 | 4.3 | 7.8 | 0.00 | 0.00 | 0.00 | 69 | 1015.8 |
| 20260507002337 | 67 | 285 | 3.5 | 10.4 | 0.00 | 0.00 | 0.00 | 71 | 1015.7 |
| 20260507001832 | 67 | 266 | 4.3 | 10.4 | 0.00 | 0.00 | 0.00 | 72 | 1015.8 |
| 20260507001330 | 67 | 296 | 6.1 | 10.4 | 0.00 | 0.00 | 0.00 | 72 | 1015.8 |
| 20260507000827 | 67 | 285 | 4.3 | 11.3 | 0.00 | 0.00 | 0.00 | 72 | 1015.7 |
| 20260507000321 | 67 | 302 | 7.0 | 11.3 | 0.00 | 0.00 | 0.00 | 72 | 1015.6 |
| 20260506235832 | 67 | 314 | 6.1 | 10.4 | 0.00 | 0.00 | 0.00 | 70 | 1015.7 |
| 20260506235329 | 67 | 295 | 5.2 | 11.3 | 0.00 | 0.00 | 0.00 | 72 | 1015.6 |
| 20260506234845 | 67 | 305 | 7.0 | 11.3 | 0.00 | 0.00 | 0.00 | 70 | 1015.5 |
| 20260506234321 | 67 | 281 | 3.5 | 10.4 | 0.00 | 0.00 | 0.00 | 73 | 1015.6 |
| 20260506233817 | 67 | 281 | 2.6 | 11.3 | 0.00 | 0.00 | 0.00 | 73 | 1015.7 |
| 20260506233328 | 67 | 288 | 5.2 | 11.3 | 0.00 | 0.00 | 0.00 | 73 | 1015.6 |
| 20260506232820 | 67 | 275 | 3.5 | 10.4 | 0.00 | 0.00 | 0.00 | 74 | 1015.6 |
| 20260506232338 | 67 | 304 | 6.1 | 10.4 | 0.00 | 0.00 | 0.00 | 73 | 1015.8 |
| 20260506231834 | 67 | 306 | 5.2 | 11.3 | 0.00 | 0.00 | 0.00 | 74 | 1015.9 |
| 20260506231331 | 67 | 304 | 5.2 | 11.3 | 0.00 | 0.00 | 0.00 | 74 | 1015.8 |
| 20260506230848 | 67 | 307 | 4.3 | 10.4 | 0.00 | 0.00 | 0.00 | 74 | 1015.8 |
| 20260506230341 | 67 | 277 | 5.2 | 10.4 | 0.00 | 0.00 | 0.00 | 74 | 1015.8 |
| 20260506225825 | 67 | 260 | 5.2 | 10.4 | 0.00 | 0.00 | 0.00 | 73 | 1015.8 |
| 20260506225323 | 67 | 278 | 4.3 | 10.4 | 0.00 | 0.00 | 0.00 | 73 | 1015.9 |
| 20260506224818 | 67 | 314 | 7.0 | 10.4 | 0.00 | 0.00 | 0.00 | 73 | 1015.9 |
| 20260506224337 | 67 | 299 | 5.2 | 11.3 | 0.00 | 0.00 | 0.00 | 74 | 1015.9 |
| 20260506223832 | 66 | 272 | 6.1 | 12.2 | 0.00 | 0.00 | 0.00 | 74 | 1016.0 |
| 20260506223329 | 66 | 239 | 7.0 | 13.0 | 0.00 | 0.00 | 0.00 | 73 | 1016.0 |
| 20260506222839 | 67 | 266 | 7.0 | 13.0 | 0.00 | 0.00 | 0.00 | 73 | 1016.1 |
| 20260506222332 | 67 | 285 | 7.0 | 12.2 | 0.00 | 0.00 | 0.00 | 73 | 1016.1 |
| 20260506221829 | 67 | 293 | 6.1 | 11.3 | 0.00 | 0.00 | 0.00 | 72 | 1016.2 |
| 20260506221326 | 67 | 268 | 6.1 | 13.9 | 0.00 | 0.00 | 0.00 | 72 | 1016.2 |
| 20260506220843 | 67 | 346 | 5.2 | 12.2 | 0.00 | 0.00 | 0.00 | 71 | 1016.2 |
| 20260506220317 | 67 | 291 | 7.8 | 12.2 | 0.00 | 0.00 | 0.00 | 70 | 1016.4 |
| 20260506215826 | 67 | 254 | 5.2 | 12.2 | 0.00 | 0.00 | 0.00 | 71 | 1016.4 |
| 20260506215321 | 67 | 333 | 5.2 | 11.3 | 0.00 | 0.00 | 0.00 | 71 | 1016.4 |
| 20260506214818 | 67 | 289 | 5.2 | 12.2 | 0.00 | 0.00 | 0.00 | 71 | 1016.4 |
| 20260506214317 | 68 | 293 | 7.0 | 12.2 | 0.00 | 0.00 | 0.00 | 69 | 1016.5 |
| 20260506213832 | 68 | 308 | 4.3 | 12.2 | 0.00 | 0.00 | 0.00 | 71 | 1016.6 |
| 20260506213329 | 67 | 323 | 6.1 | 12.2 | 0.00 | 0.00 | 0.00 | 70 | 1016.5 |
| 20260506212821 | 67 | 321 | 7.0 | 11.3 | 0.00 | 0.00 | 0.00 | 70 | 1016.7 |
| 20260506212317 | 68 | 286 | 7.0 | 11.3 | 0.00 | 0.00 | 0.00 | 70 | 1016.6 |
| 20260506211830 | 68 | 277 | 4.3 | 13.0 | 0.00 | 0.00 | 0.00 | 69 | 1016.6 |
| 20260506211327 | 67 | 300 | 5.2 | 13.0 | 0.00 | 0.00 | 0.00 | 71 | 1016.7 |
| 20260506210824 | 67 | 248 | 6.1 | 11.3 | 0.00 | 0.00 | 0.00 | 70 | 1016.8 |
| 20260506210336 | 67 | 274 | 4.3 | 13.9 | 0.00 | 0.00 | 0.00 | 71 | 1016.9 |
| 20260506205828 | 67 | 310 | 6.1 | 13.9 | 0.00 | 0.00 | 0.00 | 70 | 1016.8 |
| 20260506205323 | 67 | 298 | 5.2 | 13.0 | 0.00 | 0.00 | 0.00 | 70 | 1016.9 |
| 20260506204819 | 67 | 265 | 7.0 | 12.2 | 0.00 | 0.00 | 0.00 | 71 | 1016.9 |
| 20260506204336 | 66 | 230 | 6.1 | 12.2 | 0.00 | 0.00 | 0.00 | 71 | 1016.9 |
| 20260506203834 | 67 | 285 | 5.2 | 8.7 | 0.00 | 0.00 | 0.00 | 69 | 1017.0 |
| 20260506203352 | 67 | 301 | 5.2 | 8.7 | 0.00 | 0.00 | 0.00 | 72 | 1017.0 |
| 20260506202843 | 67 | 221 | 5.2 | 11.3 | 0.00 | 0.00 | 0.00 | 72 | 1017.0 |
| 20260506202318 | 67 | 295 | 6.1 | 11.3 | 0.00 | 0.00 | 0.00 | 71 | 1017.1 |
| 20260506201815 | 67 | 267 | 6.1 | 10.4 | 0.00 | 0.00 | 0.00 | 71 | 1017.2 |
| 20260506201331 | 67 | 328 | 5.2 | 10.4 | 0.00 | 0.00 | 0.00 | 71 | 1017.2 |
| 20260506200827 | 67 | 287 | 6.1 | 10.4 | 0.00 | 0.00 | 0.00 | 70 | 1017.1 |
| 20260506200321 | 67 | 282 | 6.1 | 11.3 | 0.00 | 0.00 | 0.00 | 69 | 1017.1 |
| 20260506195833 | 67 | 307 | 7.0 | 11.3 | 0.00 | 0.00 | 0.00 | 71 | 1017.2 |
| 20260506195329 | 67 | 316 | 4.3 | 11.3 | 0.00 | 0.00 | 0.00 | 71 | 1017.3 |
| 20260506194847 | 66 | 293 | 5.2 | 12.2 | 0.00 | 0.00 | 0.00 | 72 | 1017.3 |
| 20260506194323 | 66 | 302 | 7.0 | 12.2 | 0.00 | 0.00 | 0.00 | 70 | 1017.4 |
| 20260506193818 | 66 | 282 | 5.2 | 11.3 | 0.00 | 0.00 | 0.00 | 71 | 1017.4 |
| 20260506193315 | 66 | 271 | 5.2 | 11.3 | 0.00 | 0.00 | 0.00 | 70 | 1017.4 |
| 20260506192844 | 66 | 313 | 4.3 | 11.3 | 0.00 | 0.00 | 0.00 | 71 | 1017.5 |
| 20260506192318 | 66 | 283 | 5.2 | 10.4 | 0.00 | 0.00 | 0.00 | 70 | 1017.4 |
| 20260506191834 | 66 | 230 | 5.2 | 12.2 | 0.00 | 0.00 | 0.00 | 69 | 1017.6 |
| 20260506191331 | 66 | 323 | 4.3 | 12.2 | 0.00 | 0.00 | 0.00 | 70 | 1017.6 |
| 20260506190826 | 66 | 256 | 6.1 | 9.6 | 0.00 | 0.00 | 0.00 | 69 | 1017.7 |
| 20260506190320 | 66 | 288 | 5.2 | 9.6 | 0.00 | 0.00 | 0.00 | 69 | 1017.6 |
| 20260506185832 | 67 | 288 | 3.5 | 8.7 | 0.00 | 0.00 | 0.00 | 69 | 1017.7 |
| 20260506185331 | 67 | 278 | 5.2 | 8.7 | 0.00 | 0.00 | 0.00 | 68 | 1017.7 |
| 20260506184849 | 67 | 293 | 4.3 | 7.8 | 0.00 | 0.00 | 0.00 | 68 | 1017.7 |
| 20260506184325 | 67 | 281 | 4.3 | 8.7 | 0.00 | 0.00 | 0.00 | 67 | 1017.7 |
| 20260506183822 | 67 | 256 | 4.3 | 7.0 | 0.00 | 0.00 | 0.00 | 66 | 1017.7 |
| 20260506183339 | 67 | 288 | 3.5 | 8.7 | 0.00 | 0.00 | 0.00 | 67 | 1017.7 |
| 20260506182845 | 67 | 274 | 4.3 | 8.7 | 0.00 | 0.00 | 0.00 | 66 | 1017.8 |
| 20260506182343 | 66 | 293 | 4.3 | 7.8 | 0.00 | 0.00 | 0.00 | 66 | 1017.8 |
| 20260506181838 | 66 | 263 | 4.3 | 7.8 | 0.00 | 0.00 | 0.00 | 66 | 1017.9 |
| 20260506181354 | 67 | 290 | 1.7 | 6.1 | 0.00 | 0.00 | 0.00 | 67 | 1017.9 |
| 20260506180832 | 66 | 277 | 2.6 | 7.8 | 0.00 | 0.00 | 0.00 | 66 | 1018.0 |
| 20260506180327 | 66 | 238 | 4.3 | 7.8 | 0.00 | 0.00 | 0.00 | 67 | 1018.0 |
| 20260506175820 | 66 | 243 | 4.3 | 7.0 | 0.00 | 0.00 | 0.00 | 68 | 1018.1 |
| 20260506175316 | 66 | 282 | 3.5 | 8.7 | 0.00 | 0.00 | 0.00 | 67 | 1018.1 |
| 20260506174832 | 67 | 286 | 4.3 | 7.0 | 0.00 | 0.00 | 0.00 | 67 | 1018.2 |
| 20260506174328 | 66 | 273 | 2.6 | 7.8 | 0.00 | 0.00 | 0.00 | 68 | 1018.2 |
| 20260506173845 | 66 | 225 | 2.6 | 8.7 | 0.00 | 0.00 | 0.00 | 69 | 1018.2 |
| 20260506173323 | 66 | 257 | 2.6 | 7.8 | 0.00 | 0.00 | 0.00 | 68 | 1018.2 |
| 20260506172824 | 66 | 285 | 4.3 | 8.7 | 0.00 | 0.00 | 0.00 | 68 | 1018.3 |
| 20260506172323 | 66 | 283 | 4.3 | 8.7 | 0.00 | 0.00 | 0.00 | 67 | 1018.3 |
| 20260506171821 | 67 | 344 | 3.5 | 7.8 | 0.00 | 0.00 | 0.00 | 69 | 1018.3 |
| 20260506171319 | 66 | 284 | 3.5 | 7.0 | 0.00 | 0.00 | 0.00 | 69 | 1018.3 |
| 20260506170815 | 66 | 285 | 3.5 | 7.0 | 0.00 | 0.00 | 0.00 | 69 | 1018.3 |
| 20260506170329 | 66 | 328 | 2.6 | 7.0 | 0.00 | 0.00 | 0.00 | 69 | 1018.3 |
| 20260506165821 | 66 | 233 | 3.5 | 7.0 | 0.00 | 0.00 | 0.00 | 68 | 1018.3 |
| 20260506165317 | 65 | 284 | 3.5 | 6.1 | 0.00 | 0.00 | 0.00 | 69 | 1018.3 |
| 20260506164834 | 65 | 288 | 2.6 | 5.2 | 0.00 | 0.00 | 0.00 | 69 | 1018.3 |
| 20260506164330 | 65 | 298 | 2.6 | 5.2 | 0.00 | 0.00 | 0.00 | 68 | 1018.3 |
| 20260506163828 | 66 | 252 | 1.7 | 5.2 | 0.00 | 0.00 | 0.00 | 67 | 1018.3 |
| 20260506163325 | 66 | 302 | 2.6 | 5.2 | 0.00 | 0.00 | 0.00 | 67 | 1018.3 |
| 20260506162817 | 66 | 330 | 1.7 | 5.2 | 0.00 | 0.00 | 0.00 | 69 | 1018.3 |
| 20260506162331 | 65 | 215 | 0.9 | 3.5 | 0.00 | 0.00 | 0.00 | 68 | 1018.2 |
| 20260506161829 | 65 | 301 | 2.6 | 3.5 | 0.00 | 0.00 | 0.00 | 68 | 1018.3 |
| 20260506161324 | 65 | 351 | 0.9 | 4.3 | 0.00 | 0.00 | 0.00 | 69 | 1018.2 |
| 20260506160820 | 66 | 311 | 0.9 | 4.3 | 0.00 | 0.00 | 0.00 | 69 | 1018.2 |
| 20260506160315 | 65 | 354 | 0.9 | 3.5 | 0.00 | 0.00 | 0.00 | 70 | 1018.2 |
| 20260506155828 | 65 | 340 | 1.7 | 3.5 | 0.00 | 0.00 | 0.00 | 69 | 1018.2 |
| 20260506155325 | 64 | 232 | 0.9 | 3.5 | 0.00 | 0.00 | 0.00 | 71 | 1018.2 |
| 20260506154822 | 64 | 330 | 2.6 | 3.5 | 0.00 | 0.00 | 0.00 | 70 | 1018.2 |
| 20260506154340 | 64 | 65 | 1.7 | 3.5 | 0.00 | 0.00 | 0.00 | 70 | 1018.1 |
| 20260506153834 | 64 | 90 | 0.0 | 4.3 | 0.00 | 0.00 | 0.00 | 71 | 1018.2 |
| 20260506153331 | 64 | 55 | 2.6 | 4.3 | 0.00 | 0.00 | 0.00 | 69 | 1018.2 |
| 20260506152825 | 64 | 19 | 0.0 | 3.5 | 0.00 | 0.00 | 0.00 | 72 | 1018.2 |
| 20260506152341 | 63 | 94 | 0.9 | 3.5 | 0.00 | 0.00 | 0.00 | 72 | 1018.1 |
| 20260506151817 | 62 | 146 | 0.9 | 2.6 | 0.00 | 0.00 | 0.00 | 72 | 1018.2 |
| 20260506151334 | 62 | 89 | 0.9 | 1.7 | 0.00 | 0.00 | 0.00 | 73 | 1018.1 |
| 20260506150830 | 61 | 72 | 0.9 | 2.6 | 0.00 | 0.00 | 0.00 | 73 | 1018.2 |
| 20260506150324 | 60 | 56 | 1.7 | 3.5 | 0.00 | 0.00 | 0.00 | 74 | 1018.2 |
| 20260506145815 | 60 | 24 | 2.6 | 3.5 | 0.00 | 0.00 | 0.00 | 74 | 1018.2 |
| 20260506145332 | 60 | 51 | 0.9 | 3.5 | 0.00 | 0.00 | 0.00 | 76 | 1018.3 |
| 20260506144830 | 59 | 82 | 0.9 | 3.5 | 0.00 | 0.00 | 0.00 | 76 | 1018.2 |
| 20260506144325 | 59 | 6 | 0.9 | 2.6 | 0.00 | 0.00 | 0.00 | 76 | 1018.2 |
| 20260506143823 | 58 | 33 | 0.0 | 2.6 | 0.00 | 0.00 | 0.00 | 77 | 1018.2 |
| 20260506143338 | 58 | 56 | 0.9 | 2.6 | 0.00 | 0.00 | 0.00 | 79 | 1018.2 |
| 20260506142822 | 57 | 60 | 0.9 | 3.5 | 0.00 | 0.00 | 0.00 | 79 | 1018.1 |
| 20260506142336 | 56 | 21 | 1.7 | 4.3 | 0.00 | 0.00 | 0.00 | 80 | 1018.1 |
| 20260506141832 | 56 | 23 | 0.9 | 4.3 | 0.00 | 0.00 | 0.00 | 81 | 1018.1 |
| 20260506141329 | 55 | 330 | 1.7 | 3.5 | 0.00 | 0.00 | 0.00 | 81 | 1018.0 |
| 20260506140826 | 55 | 11 | 0.9 | 2.6 | 0.00 | 0.00 | 0.00 | 81 | 1018.0 |
| 20260506140322 | 55 | 25 | 0.9 | 2.6 | 0.00 | 0.00 | 0.00 | 82 | 1017.9 |
| 20260506135815 | 54 | 31 | 0.9 | 4.3 | 0.00 | 0.00 | 0.00 | 82 | 1018.0 |
| 20260506135331 | 54 | 32 | 1.7 | 4.3 | 0.00 | 0.00 | 0.00 | 83 | 1017.9 |
| 20260506134826 | 53 | 33 | 2.6 | 4.3 | 0.00 | 0.00 | 0.00 | 83 | 1017.9 |
| 20260506133822 | 53 | 28 | 1.7 | 3.5 | 0.00 | 0.00 | 0.00 | 84 | 1017.7 |
| 20260506133338 | 53 | 6 | 0.9 | 3.5 | 0.00 | 0.00 | 0.00 | 84 | 1017.8 |
| 20260506132828 | 52 | 333 | 1.7 | 3.5 | 0.00 | 0.00 | 0.00 | 84 | 1017.7 |
| 20260506132326 | 52 | 17 | 0.0 | 3.5 | 0.00 | 0.00 | 0.00 | 84 | 1017.8 |
| 20260506131822 | 52 | 24 | 1.7 | 2.6 | 0.00 | 0.00 | 0.00 | 84 | 1017.8 |
| 20260506131338 | 52 | 56 | 0.9 | 3.5 | 0.00 | 0.00 | 0.00 | 84 | 1017.6 |
| 20260506130833 | 52 | 336 | 1.7 | 3.5 | 0.00 | 0.00 | 0.00 | 84 | 1017.7 |
| 20260506130329 | 52 | 32 | 0.9 | 3.5 | 0.00 | 0.00 | 0.00 | 84 | 1017.6 |
| 20260506125821 | 52 | 23 | 1.7 | 3.5 | 0.00 | 0.00 | 0.00 | 84 | 1017.6 |
| 20260506125319 | 52 | 26 | 0.0 | 0.9 | 0.00 | 0.00 | 0.00 | 85 | 1017.4 |
| 20260506124835 | 52 | 70 | 0.0 | 0.9 | 0.00 | 0.00 | 0.00 | 85 | 1017.3 |
| 20260506124351 | 52 | 65 | 0.0 | 0.0 | 0.00 | 0.00 | 0.00 | 85 | 1017.3 |
| 20260506123845 | 52 | 97 | 0.0 | 0.0 | 0.00 | 0.00 | 0.00 | 85 | 1017.1 |
| 20260506123341 | 52 | 97 | 0.0 | 0.0 | 0.00 | 0.00 | 0.00 | 84 | 1017.1 |
| 20260506122827 | 52 | 97 | 0.0 | 0.0 | 0.00 | 0.00 | 0.00 | 84 | 1017.1 |
| 20260506122323 | 52 | 97 | 0.0 | 0.9 | 0.00 | 0.00 | 0.00 | 84 | 1017.1 |
| 20260506121819 | 52 | 97 | 0.0 | 0.9 | 0.00 | 0.00 | 0.00 | 84 | 1017.1 |
| 20260506121316 | 52 | 96 | 0.0 | 0.9 | 0.00 | 0.00 | 0.00 | 84 | 1017.0 |
| 20260506120829 | 52 | 96 | 0.0 | 3.5 | 0.00 | 0.00 | 0.00 | 84 | 1017.1 |
| 20260506120324 | 52 | 46 | 0.0 | 3.5 | 0.00 | 0.00 | 0.00 | 84 | 1017.1 |
| 20260506115836 | 52 | 27 | 1.7 | 3.5 | 0.00 | 0.03 | 0.00 | 84 | 1017.1 |
| 20260506115330 | 53 | 42 | 0.0 | 1.7 | 0.00 | 0.03 | 0.00 | 84 | 1017.1 |
| 20260506114828 | 53 | 79 | 0.0 | 0.0 | 0.00 | 0.03 | 0.00 | 84 | 1017.1 |
| 20260506114327 | 53 | 79 | 0.0 | 0.0 | 0.00 | 0.03 | 0.00 | 84 | 1017.1 |
| 20260506113824 | 53 | 79 | 0.0 | 1.7 | 0.00 | 0.03 | 0.00 | 84 | 1017.1 |
| 20260506113342 | 53 | 55 | 0.0 | 1.7 | 0.00 | 0.03 | 0.00 | 84 | 1017.1 |
| 20260506112854 | 53 | 73 | 0.0 | 0.0 | 0.00 | 0.03 | 0.00 | 84 | 1017.2 |
| 20260506112330 | 53 | 93 | 0.0 | 0.0 | 0.00 | 0.03 | 0.00 | 84 | 1017.1 |
| 20260506111828 | 53 | 93 | 0.0 | 0.0 | 0.00 | 0.03 | 0.00 | 84 | 1017.0 |
| 20260506111325 | 53 | 93 | 0.0 | 1.7 | 0.00 | 0.03 | 0.00 | 83 | 1017.0 |
| 20260506110821 | 53 | 92 | 0.0 | 1.7 | 0.00 | 0.03 | 0.00 | 83 | 1017.1 |
| 20260506110332 | 53 | 18 | 0.0 | 1.7 | 0.00 | 0.03 | 0.00 | 83 | 1017.0 |
| 20260506105844 | 54 | 53 | 0.0 | 1.7 | 0.00 | 0.03 | 0.00 | 83 | 1017.0 |
| 20260506105317 | 54 | 46 | 0.0 | 0.0 | 0.00 | 0.03 | 0.00 | 83 | 1017.1 |
| 20260506104835 | 54 | 46 | 0.0 | 2.6 | 0.00 | 0.03 | 0.00 | 83 | 1017.0 |
| 20260506104354 | 54 | 46 | 0.9 | 2.6 | 0.00 | 0.03 | 0.00 | 83 | 1017.0 |
| 20260506103830 | 54 | 51 | 0.0 | 1.7 | 0.00 | 0.03 | 0.00 | 83 | 1017.0 |
| 20260506103327 | 54 | 96 | 0.0 | 3.5 | 0.00 | 0.03 | 0.00 | 83 | 1017.0 |
| 20260506102821 | 54 | 13 | 0.9 | 4.3 | 0.00 | 0.03 | 0.00 | 83 | 1017.0 |
| 20260506102318 | 54 | 27 | 2.6 | 4.3 | 0.00 | 0.03 | 0.00 | 83 | 1017.0 |
| 20260506101816 | 54 | 38 | 0.9 | 3.5 | 0.00 | 0.03 | 0.00 | 83 | 1017.0 |
| 20260506101329 | 54 | 23 | 0.9 | 4.3 | 0.00 | 0.03 | 0.00 | 83 | 1016.9 |
| 20260506100826 | 54 | 39 | 1.7 | 4.3 | 0.00 | 0.03 | 0.00 | 83 | 1016.9 |
| 20260506100340 | 54 | 35 | 0.9 | 4.3 | 0.00 | 0.03 | 0.00 | 82 | 1016.9 |
| 20260506095823 | 55 | 63 | 0.9 | 4.3 | 0.00 | 0.04 | 0.00 | 82 | 1016.9 |
| 20260506095320 | 55 | 86 | 0.0 | 3.5 | 0.00 | 0.04 | 0.00 | 82 | 1017.0 |
| 20260506094815 | 55 | 29 | 1.7 | 4.3 | 0.00 | 0.04 | 0.00 | 82 | 1017.0 |
| 20260506094332 | 55 | 50 | 1.7 | 4.3 | 0.00 | 0.04 | 0.00 | 82 | 1016.9 |
| 20260506093830 | 55 | 32 | 2.6 | 4.3 | 0.00 | 0.04 | 0.00 | 82 | 1017.0 |
| 20260506093326 | 55 | 54 | 1.7 | 4.3 | 0.00 | 0.04 | 0.00 | 82 | 1017.0 |
| 20260506092819 | 55 | 54 | 1.7 | 3.5 | 0.00 | 0.04 | 0.00 | 82 | 1017.0 |
| 20260506092316 | 55 | 50 | 0.9 | 3.5 | 0.00 | 0.04 | 0.00 | 82 | 1017.0 |
| 20260506091832 | 55 | 30 | 0.9 | 3.5 | 0.00 | 0.04 | 0.00 | 82 | 1017.1 |
| 20260506091329 | 55 | 342 | 1.7 | 3.5 | 0.00 | 0.04 | 0.00 | 82 | 1017.1 |
| 20260506090847 | 55 | 349 | 1.7 | 2.6 | 0.00 | 0.04 | 0.00 | 82 | 1017.2 |
| 20260506090320 | 55 | 48 | 0.9 | 3.5 | 0.00 | 0.04 | 0.00 | 82 | 1017.1 |
| 20260506085831 | 55 | 40 | 1.7 | 3.5 | 0.00 | 0.04 | 0.00 | 82 | 1017.1 |
| 20260506085327 | 55 | 14 | 1.7 | 3.5 | 0.00 | 0.04 | 0.00 | 82 | 1017.2 |
| 20260506084845 | 55 | 36 | 1.7 | 3.5 | 0.00 | 0.04 | 0.00 | 82 | 1017.2 |
| 20260506084321 | 55 | 34 | 1.7 | 4.3 | 0.00 | 0.04 | 0.00 | 82 | 1017.2 |
| 20260506083817 | 55 | 38 | 1.7 | 4.3 | 0.00 | 0.04 | 0.00 | 82 | 1017.3 |
| 20260506083339 | 55 | 24 | 0.9 | 2.6 | 0.00 | 0.04 | 0.00 | 82 | 1017.4 |
| 20260506082823 | 56 | 349 | 0.0 | 1.7 | 0.00 | 0.04 | 0.00 | 81 | 1017.4 |
| 20260506082340 | 56 | 359 | 0.0 | 1.7 | 0.00 | 0.04 | 0.00 | 81 | 1017.5 |
| 20260506081837 | 56 | 360 | 0.9 | 1.7 | 0.00 | 0.04 | 0.00 | 81 | 1017.4 |
| 20260506081315 | 56 | 6 | 0.9 | 1.7 | 0.00 | 0.04 | 0.00 | 81 | 1017.4 |
| 20260506080826 | 57 | 2 | 0.0 | 0.9 | 0.00 | 0.04 | 0.00 | 81 | 1017.6 |
| 20260506080321 | 57 | 356 | 0.0 | 0.0 | 0.00 | 0.04 | 0.00 | 80 | 1017.6 |